Year,Month,Day,Hour,Minute,Value (Times are PST for temperature in C)
2016,07,24,00,00,14.20
2016,07,24,00,01,14.20
2016,07,24,00,02,14.20
2016,07,24,00,03,14.20
2016,07,24,00,04,14.20
2016,07,24,00,05,14.20
2016,07,24,00,06,14.20
2016,07,24,00,07,14.20
2016,07,24,00,08,14.20
2016,07,24,00,09,14.20
2016,07,24,00,10,14.20
2016,07,24,00,11,14.20
2016,07,24,00,12,14.20
2016,07,24,00,13,14.20
2016,07,24,00,14,14.20
2016,07,24,00,15,14.20
2016,07,24,00,16,14.20
2016,07,24,00,17,14.20
2016,07,24,00,18,14.20
2016,07,24,00,19,14.20
2016,07,24,00,20,14.20
2016,07,24,00,21,14.20
2016,07,24,00,22,14.20
2016,07,24,00,23,14.20
2016,07,24,00,24,14.20
2016,07,24,00,25,14.30
2016,07,24,00,26,14.30
2016,07,24,00,27,14.30
2016,07,24,00,28,14.30
2016,07,24,00,29,14.20
2016,07,24,00,30,14.20
2016,07,24,00,31,14.20
2016,07,24,00,32,14.20
2016,07,24,00,33,14.20
2016,07,24,00,34,14.20
2016,07,24,00,35,14.20
2016,07,24,00,36,14.20
2016,07,24,00,37,14.20
2016,07,24,00,38,14.30
2016,07,24,00,39,14.30
2016,07,24,00,40,14.30
2016,07,24,00,41,14.30
2016,07,24,00,42,14.30
2016,07,24,00,43,14.30
2016,07,24,00,44,14.30
2016,07,24,00,45,14.30
2016,07,24,00,46,14.30
2016,07,24,00,47,14.30
2016,07,24,00,48,14.30
2016,07,24,00,49,14.30
2016,07,24,00,50,14.30
2016,07,24,00,51,14.30
2016,07,24,00,52,14.30
2016,07,24,00,53,14.30
2016,07,24,00,54,14.30
2016,07,24,00,55,14.30
2016,07,24,00,56,14.30
2016,07,24,00,57,14.20
2016,07,24,00,58,14.20
2016,07,24,00,59,14.20
2016,07,24,01,00,14.20
2016,07,24,01,01,14.10
2016,07,24,01,02,14.10
2016,07,24,01,03,14.10
2016,07,24,01,04,14.10
2016,07,24,01,05,14.00
2016,07,24,01,06,14.00
2016,07,24,01,07,13.90
2016,07,24,01,08,13.90
2016,07,24,01,09,13.90
2016,07,24,01,10,13.80
2016,07,24,01,11,13.80
2016,07,24,01,12,13.80
2016,07,24,01,13,13.70
2016,07,24,01,14,13.70
2016,07,24,01,15,13.70
2016,07,24,01,16,13.70
2016,07,24,01,17,13.70
2016,07,24,01,18,13.60
2016,07,24,01,19,13.60
2016,07,24,01,20,13.60
2016,07,24,01,21,13.60
2016,07,24,01,22,13.60
2016,07,24,01,23,13.60
2016,07,24,01,24,13.60
2016,07,24,01,25,13.50
2016,07,24,01,26,13.50
2016,07,24,01,27,13.50
2016,07,24,01,28,13.50
2016,07,24,01,29,13.50
2016,07,24,01,30,13.50
2016,07,24,01,31,13.50
2016,07,24,01,32,13.40
2016,07,24,01,33,13.40
2016,07,24,01,34,13.40
2016,07,24,01,35,13.40
2016,07,24,01,36,13.40
2016,07,24,01,37,13.40
2016,07,24,01,38,13.40
2016,07,24,01,39,13.40
2016,07,24,01,40,13.40
2016,07,24,01,41,13.40
2016,07,24,01,42,13.40
2016,07,24,01,43,13.30
2016,07,24,01,44,13.30
2016,07,24,01,45,13.30
2016,07,24,01,46,13.30
2016,07,24,01,47,13.30
2016,07,24,01,48,13.30
2016,07,24,01,49,13.30
2016,07,24,01,50,13.30
2016,07,24,01,51,13.30
2016,07,24,01,52,13.30
2016,07,24,01,53,13.30
2016,07,24,01,54,13.30
2016,07,24,01,55,13.30
2016,07,24,01,56,13.30
2016,07,24,01,57,13.30
2016,07,24,01,58,13.30
2016,07,24,01,59,13.20
2016,07,24,02,00,13.20
2016,07,24,02,01,13.20
2016,07,24,02,02,13.20
2016,07,24,02,03,13.20
2016,07,24,02,04,13.20
2016,07,24,02,05,13.20
2016,07,24,02,06,13.20
2016,07,24,02,07,13.20
2016,07,24,02,08,13.20
2016,07,24,02,09,13.20
2016,07,24,02,10,13.20
2016,07,24,02,11,13.20
2016,07,24,02,12,13.20
2016,07,24,02,13,13.20
2016,07,24,02,14,13.20
2016,07,24,02,15,13.20
2016,07,24,02,16,13.20
2016,07,24,02,17,13.20
2016,07,24,02,18,13.20
2016,07,24,02,19,13.20
2016,07,24,02,20,13.20
2016,07,24,02,21,13.20
2016,07,24,02,22,13.20
2016,07,24,02,23,13.20
2016,07,24,02,24,13.20
2016,07,24,02,25,13.20
2016,07,24,02,26,13.20
2016,07,24,02,27,13.20
2016,07,24,02,28,13.20
2016,07,24,02,29,13.20
2016,07,24,02,30,13.20
2016,07,24,02,31,13.20
2016,07,24,02,32,13.20
2016,07,24,02,33,13.20
2016,07,24,02,34,13.20
2016,07,24,02,35,13.20
2016,07,24,02,36,13.20
2016,07,24,02,37,13.20
2016,07,24,02,38,13.20
2016,07,24,02,39,13.20
2016,07,24,02,40,13.20
2016,07,24,02,41,13.20
2016,07,24,02,42,13.20
2016,07,24,02,43,13.30
2016,07,24,02,44,13.30
2016,07,24,02,45,13.30
2016,07,24,02,46,13.30
2016,07,24,02,47,13.30
2016,07,24,02,48,13.30
2016,07,24,02,49,13.30
2016,07,24,02,50,13.30
2016,07,24,02,51,13.30
2016,07,24,02,52,13.30
2016,07,24,02,53,13.30
2016,07,24,02,54,13.30
2016,07,24,02,55,13.30
2016,07,24,02,56,13.30
2016,07,24,02,57,13.30
2016,07,24,02,58,13.30
2016,07,24,02,59,13.30
2016,07,24,03,00,13.30
2016,07,24,03,01,13.30
2016,07,24,03,02,13.30
2016,07,24,03,03,13.30
2016,07,24,03,04,13.30
2016,07,24,03,05,13.30
2016,07,24,03,06,13.30
2016,07,24,03,07,13.30
2016,07,24,03,08,13.30
2016,07,24,03,09,13.30
2016,07,24,03,10,13.30
2016,07,24,03,11,13.30
2016,07,24,03,12,13.30
2016,07,24,03,13,13.30
2016,07,24,03,14,13.30
2016,07,24,03,15,13.30
2016,07,24,03,16,13.30
2016,07,24,03,17,13.30
2016,07,24,03,18,13.30
2016,07,24,03,19,13.30
2016,07,24,03,20,13.30
2016,07,24,03,21,13.30
2016,07,24,03,22,13.30
2016,07,24,03,23,13.30
2016,07,24,03,24,13.30
2016,07,24,03,25,13.30
2016,07,24,03,26,13.30
2016,07,24,03,27,13.30
2016,07,24,03,28,13.30
2016,07,24,03,29,13.30
2016,07,24,03,30,13.20
2016,07,24,03,31,13.20
2016,07,24,03,32,13.20
2016,07,24,03,33,13.20
2016,07,24,03,34,13.20
2016,07,24,03,35,13.20
2016,07,24,03,36,13.20
2016,07,24,03,37,13.20
2016,07,24,03,38,13.20
2016,07,24,03,39,13.20
2016,07,24,03,40,13.20
2016,07,24,03,41,13.20
2016,07,24,03,42,13.20
2016,07,24,03,43,13.20
2016,07,24,03,44,13.20
2016,07,24,03,45,13.20
2016,07,24,03,46,13.20
2016,07,24,03,47,13.20
2016,07,24,03,48,13.20
2016,07,24,03,49,13.20
2016,07,24,03,50,13.20
2016,07,24,03,51,13.20
2016,07,24,03,52,13.20
2016,07,24,03,53,13.20
2016,07,24,03,54,13.20
2016,07,24,03,55,13.20
2016,07,24,03,56,13.10
2016,07,24,03,57,13.10
2016,07,24,03,58,13.10
2016,07,24,03,59,13.10
2016,07,24,04,00,13.10
2016,07,24,04,01,13.10
2016,07,24,04,02,13.10
2016,07,24,04,03,13.10
2016,07,24,04,04,13.20
2016,07,24,04,05,13.20
2016,07,24,04,06,13.20
2016,07,24,04,07,13.20
2016,07,24,04,08,13.20
2016,07,24,04,09,13.20
2016,07,24,04,10,13.20
2016,07,24,04,11,13.10
2016,07,24,04,12,13.10
2016,07,24,04,13,13.10
2016,07,24,04,14,13.10
2016,07,24,04,15,13.10
2016,07,24,04,16,13.10
2016,07,24,04,17,13.10
2016,07,24,04,18,13.10
2016,07,24,04,19,13.10
2016,07,24,04,20,13.10
2016,07,24,04,21,13.20
2016,07,24,04,22,13.20
2016,07,24,04,23,13.20
2016,07,24,04,24,13.20
2016,07,24,04,25,13.20
2016,07,24,04,26,13.20
2016,07,24,04,27,13.20
2016,07,24,04,28,13.20
2016,07,24,04,29,13.20
2016,07,24,04,30,13.20
2016,07,24,04,31,13.20
2016,07,24,04,32,13.20
2016,07,24,04,33,13.20
2016,07,24,04,34,13.20
2016,07,24,04,35,13.20
2016,07,24,04,36,13.20
2016,07,24,04,37,13.20
2016,07,24,04,38,13.20
2016,07,24,04,39,13.20
2016,07,24,04,40,13.20
2016,07,24,04,41,13.20
2016,07,24,04,42,13.20
2016,07,24,04,43,13.20
2016,07,24,04,44,13.20
2016,07,24,04,45,13.20
2016,07,24,04,46,13.20
2016,07,24,04,47,13.30
2016,07,24,04,48,13.30
2016,07,24,04,49,13.30
2016,07,24,04,50,13.30
2016,07,24,04,51,13.30
2016,07,24,04,52,13.30
2016,07,24,04,53,13.30
2016,07,24,04,54,13.20
2016,07,24,04,55,13.20
2016,07,24,04,56,13.20
2016,07,24,04,57,13.20
2016,07,24,04,58,13.20
2016,07,24,04,59,13.20
2016,07,24,05,00,13.20
2016,07,24,05,01,13.20
2016,07,24,05,02,13.20
2016,07,24,05,03,13.20
2016,07,24,05,04,13.20
2016,07,24,05,05,13.20
2016,07,24,05,06,13.20
2016,07,24,05,07,13.20
2016,07,24,05,08,13.20
2016,07,24,05,09,13.20
2016,07,24,05,10,13.20
2016,07,24,05,11,13.20
2016,07,24,05,12,13.20
2016,07,24,05,13,13.20
2016,07,24,05,14,13.20
2016,07,24,05,15,13.20
2016,07,24,05,16,13.20
2016,07,24,05,17,13.20
2016,07,24,05,18,13.20
2016,07,24,05,19,13.20
2016,07,24,05,20,13.20
2016,07,24,05,21,13.20
2016,07,24,05,22,13.20
2016,07,24,05,23,13.20
2016,07,24,05,24,13.20
2016,07,24,05,25,13.20
2016,07,24,05,26,13.20
2016,07,24,05,27,13.20
2016,07,24,05,28,13.20
2016,07,24,05,29,13.30
2016,07,24,05,30,13.30
2016,07,24,05,31,13.30
2016,07,24,05,32,13.30
2016,07,24,05,33,13.30
2016,07,24,05,34,13.30
2016,07,24,05,35,13.30
2016,07,24,05,36,13.30
2016,07,24,05,37,13.30
2016,07,24,05,38,13.30
2016,07,24,05,39,13.30
2016,07,24,05,40,13.30
2016,07,24,05,41,13.30
2016,07,24,05,42,13.30
2016,07,24,05,43,13.30
2016,07,24,05,44,13.30
2016,07,24,05,45,13.30
2016,07,24,05,46,13.30
2016,07,24,05,47,13.30
2016,07,24,05,48,13.30
2016,07,24,05,49,13.30
2016,07,24,05,50,13.30
2016,07,24,05,51,13.30
2016,07,24,05,52,13.30
2016,07,24,05,53,13.30
2016,07,24,05,54,13.30
2016,07,24,05,55,13.30
2016,07,24,05,56,13.30
2016,07,24,05,57,13.30
2016,07,24,05,58,13.30
2016,07,24,05,59,13.30
2016,07,24,06,00,13.30
2016,07,24,06,01,13.30
2016,07,24,06,02,13.30
2016,07,24,06,03,13.30
2016,07,24,06,04,13.30
2016,07,24,06,05,13.30
2016,07,24,06,06,13.30
2016,07,24,06,07,13.30
2016,07,24,06,08,13.30
2016,07,24,06,09,13.30
2016,07,24,06,10,13.30
2016,07,24,06,11,13.40
2016,07,24,06,12,13.40
2016,07,24,06,13,13.40
2016,07,24,06,14,13.40
2016,07,24,06,15,13.40
2016,07,24,06,16,13.40
2016,07,24,06,17,13.40
2016,07,24,06,18,13.40
2016,07,24,06,19,13.40
2016,07,24,06,20,13.40
2016,07,24,06,21,13.40
2016,07,24,06,22,13.40
2016,07,24,06,23,13.40
2016,07,24,06,24,13.40
2016,07,24,06,25,13.40
2016,07,24,06,26,13.40
2016,07,24,06,27,13.40
2016,07,24,06,28,13.40
2016,07,24,06,29,13.40
2016,07,24,06,30,13.40
2016,07,24,06,31,13.40
2016,07,24,06,32,13.40
2016,07,24,06,33,13.40
2016,07,24,06,34,13.40
2016,07,24,06,35,13.50
2016,07,24,06,36,13.50
2016,07,24,06,37,13.50
2016,07,24,06,38,13.50
2016,07,24,06,39,13.60
2016,07,24,06,40,13.60
2016,07,24,06,41,13.60
2016,07,24,06,42,13.60
2016,07,24,06,43,13.60
2016,07,24,06,44,13.60
2016,07,24,06,45,13.70
2016,07,24,06,46,13.70
2016,07,24,06,47,13.70
2016,07,24,06,48,13.70
2016,07,24,06,49,13.70
2016,07,24,06,50,13.70
2016,07,24,06,51,13.80
2016,07,24,06,52,13.80
2016,07,24,06,53,13.80
2016,07,24,06,54,13.80
2016,07,24,06,55,13.90
2016,07,24,06,56,13.90
2016,07,24,06,57,13.90
2016,07,24,06,58,13.90
2016,07,24,06,59,13.90
2016,07,24,07,00,13.90
2016,07,24,07,01,13.90
2016,07,24,07,02,13.90
2016,07,24,07,03,13.90
2016,07,24,07,04,13.90
2016,07,24,07,05,13.90
2016,07,24,07,06,14.00
2016,07,24,07,07,14.00
2016,07,24,07,08,14.00
2016,07,24,07,09,14.10
2016,07,24,07,10,14.10
2016,07,24,07,11,14.10
2016,07,24,07,12,14.10
2016,07,24,07,13,14.10
2016,07,24,07,14,14.10
2016,07,24,07,15,14.10
2016,07,24,07,16,14.10
2016,07,24,07,17,14.10
2016,07,24,07,18,14.10
2016,07,24,07,19,14.10
2016,07,24,07,20,14.10
2016,07,24,07,21,14.10
2016,07,24,07,22,14.10
2016,07,24,07,23,14.20
2016,07,24,07,24,14.20
2016,07,24,07,25,14.20
2016,07,24,07,26,14.20
2016,07,24,07,27,14.20
2016,07,24,07,28,14.20
2016,07,24,07,29,14.30
2016,07,24,07,30,14.30
2016,07,24,07,31,14.30
2016,07,24,07,32,14.30
2016,07,24,07,33,14.30
2016,07,24,07,34,14.40
2016,07,24,07,35,14.40
2016,07,24,07,36,14.40
2016,07,24,07,37,14.40
2016,07,24,07,38,14.50
2016,07,24,07,39,14.50
2016,07,24,07,40,14.60
2016,07,24,07,41,14.60
2016,07,24,07,42,14.60
2016,07,24,07,43,14.60
2016,07,24,07,44,14.60
2016,07,24,07,45,14.70
2016,07,24,07,46,14.70
2016,07,24,07,47,14.70
2016,07,24,07,48,14.70
2016,07,24,07,49,14.70
2016,07,24,07,50,14.80
2016,07,24,07,51,14.70
2016,07,24,07,52,14.70
2016,07,24,07,53,14.70
2016,07,24,07,54,14.70
2016,07,24,07,55,14.70
2016,07,24,07,56,14.70
2016,07,24,07,57,14.70
2016,07,24,07,58,14.70
2016,07,24,07,59,14.70
2016,07,24,08,00,14.70
2016,07,24,08,01,14.70
2016,07,24,08,02,14.70
2016,07,24,08,03,14.70
2016,07,24,08,04,14.70
2016,07,24,08,05,14.70
2016,07,24,08,06,14.70
2016,07,24,08,07,14.70
2016,07,24,08,08,14.70
2016,07,24,08,09,14.80
2016,07,24,08,10,14.80
2016,07,24,08,11,14.80
2016,07,24,08,12,14.80
2016,07,24,08,13,14.80
2016,07,24,08,14,14.90
2016,07,24,08,15,14.90
2016,07,24,08,16,14.90
2016,07,24,08,17,14.90
2016,07,24,08,18,15.00
2016,07,24,08,19,15.00
2016,07,24,08,20,15.10
2016,07,24,08,21,15.10
2016,07,24,08,22,15.10
2016,07,24,08,23,15.10
2016,07,24,08,24,15.20
2016,07,24,08,25,15.20
2016,07,24,08,26,15.20
2016,07,24,08,27,15.20
2016,07,24,08,28,15.20
2016,07,24,08,29,15.20
2016,07,24,08,30,15.20
2016,07,24,08,31,15.20
2016,07,24,08,32,15.20
2016,07,24,08,33,15.20
2016,07,24,08,34,15.20
2016,07,24,08,35,15.20
2016,07,24,08,36,15.20
2016,07,24,08,37,15.20
2016,07,24,08,38,15.20
2016,07,24,08,39,15.20
2016,07,24,08,40,15.30
2016,07,24,08,41,15.30
2016,07,24,08,42,15.30
2016,07,24,08,43,15.30
2016,07,24,08,44,15.30
2016,07,24,08,45,15.30
2016,07,24,08,46,15.30
2016,07,24,08,47,15.30
2016,07,24,08,48,15.30
2016,07,24,08,49,15.40
2016,07,24,08,50,15.40
2016,07,24,08,51,15.40
2016,07,24,08,52,15.40
2016,07,24,08,53,15.50
2016,07,24,08,54,15.50
2016,07,24,08,55,15.50
2016,07,24,08,56,15.60
2016,07,24,08,57,15.60
2016,07,24,08,58,15.60
2016,07,24,08,59,15.60
2016,07,24,09,00,15.70
2016,07,24,09,01,15.70
2016,07,24,09,02,15.70
2016,07,24,09,03,15.70
2016,07,24,09,04,15.80
2016,07,24,09,05,15.80
2016,07,24,09,06,15.80
2016,07,24,09,07,15.90
2016,07,24,09,08,15.90
2016,07,24,09,09,16.00
2016,07,24,09,10,16.00
2016,07,24,09,11,16.00
2016,07,24,09,12,16.00
2016,07,24,09,13,16.10
2016,07,24,09,14,16.10
2016,07,24,09,15,16.10
2016,07,24,09,16,16.20
2016,07,24,09,17,16.20
2016,07,24,09,18,16.30
2016,07,24,09,19,16.30
2016,07,24,09,20,16.40
2016,07,24,09,21,16.50
2016,07,24,09,22,16.50
2016,07,24,09,23,16.60
2016,07,24,09,24,16.60
2016,07,24,09,25,16.60
2016,07,24,09,26,16.70
2016,07,24,09,27,16.80
2016,07,24,09,28,16.80
2016,07,24,09,29,16.90
2016,07,24,09,30,16.90
2016,07,24,09,31,16.90
2016,07,24,09,32,16.90
2016,07,24,09,33,17.00
2016,07,24,09,34,17.10
2016,07,24,09,35,17.10
2016,07,24,09,36,17.20
2016,07,24,09,37,17.30
2016,07,24,09,38,17.40
2016,07,24,09,39,17.60
2016,07,24,09,40,17.70
2016,07,24,09,41,17.70
2016,07,24,09,42,17.90
2016,07,24,09,43,18.00
2016,07,24,09,44,18.10
2016,07,24,09,45,18.20
2016,07,24,09,46,18.30
2016,07,24,09,47,18.30
2016,07,24,09,48,18.40
2016,07,24,09,49,18.50
2016,07,24,09,50,18.50
2016,07,24,09,51,18.60
2016,07,24,09,52,18.70
2016,07,24,09,53,18.80
2016,07,24,09,54,18.90
2016,07,24,09,55,18.90
2016,07,24,09,56,18.80
2016,07,24,09,57,18.70
2016,07,24,09,58,18.60
2016,07,24,09,59,18.50
2016,07,24,10,00,18.50
2016,07,24,10,01,18.40
2016,07,24,10,02,18.40
2016,07,24,10,03,18.40
2016,07,24,10,04,18.50
2016,07,24,10,05,18.60
2016,07,24,10,06,18.70
2016,07,24,10,07,18.80
2016,07,24,10,08,18.80
2016,07,24,10,09,18.80
2016,07,24,10,10,18.80
2016,07,24,10,11,18.90
2016,07,24,10,12,19.00
2016,07,24,10,13,19.00
2016,07,24,10,14,19.10
2016,07,24,10,15,19.10
2016,07,24,10,16,19.20
2016,07,24,10,17,19.30
2016,07,24,10,18,19.30
2016,07,24,10,19,19.40
2016,07,24,10,20,19.40
2016,07,24,10,21,19.50
2016,07,24,10,22,19.60
2016,07,24,10,23,19.70
2016,07,24,10,24,19.70
2016,07,24,10,25,19.70
2016,07,24,10,26,19.70
2016,07,24,10,27,19.80
2016,07,24,10,28,19.80
2016,07,24,10,29,19.80
2016,07,24,10,30,19.80
2016,07,24,10,31,19.80
2016,07,24,10,32,19.90
2016,07,24,10,33,19.90
2016,07,24,10,34,19.90
2016,07,24,10,35,19.90
2016,07,24,10,36,19.90
2016,07,24,10,37,20.00
2016,07,24,10,38,20.10
2016,07,24,10,39,20.20
2016,07,24,10,40,20.40
2016,07,24,10,41,20.40
2016,07,24,10,42,20.50
2016,07,24,10,43,20.60
2016,07,24,10,44,20.60
2016,07,24,10,45,20.60
2016,07,24,10,46,20.70
2016,07,24,10,47,20.70
2016,07,24,10,48,20.80
2016,07,24,10,49,20.90
2016,07,24,10,50,20.90
2016,07,24,10,51,20.90
2016,07,24,10,52,20.90
2016,07,24,10,53,20.90
2016,07,24,10,54,20.90
2016,07,24,10,55,21.00
2016,07,24,10,56,21.00
2016,07,24,10,57,21.00
2016,07,24,10,58,21.00
2016,07,24,10,59,21.00
2016,07,24,11,00,20.90
2016,07,24,11,01,20.90
2016,07,24,11,02,20.80
2016,07,24,11,03,20.80
2016,07,24,11,04,20.80
2016,07,24,11,05,20.90
2016,07,24,11,06,21.00
2016,07,24,11,07,21.00
2016,07,24,11,08,21.10
2016,07,24,11,09,21.10
2016,07,24,11,10,21.10
2016,07,24,11,11,21.10
2016,07,24,11,12,21.10
2016,07,24,11,13,21.10
2016,07,24,11,14,21.20
2016,07,24,11,15,21.20
2016,07,24,11,16,21.30
2016,07,24,11,17,21.30
2016,07,24,11,18,21.30
2016,07,24,11,19,21.30
2016,07,24,11,20,21.40
2016,07,24,11,21,21.40
2016,07,24,11,22,21.40
2016,07,24,11,23,21.30
2016,07,24,11,24,21.30
2016,07,24,11,25,21.30
2016,07,24,11,26,21.40
2016,07,24,11,27,21.40
2016,07,24,11,28,21.40
2016,07,24,11,29,21.40
2016,07,24,11,30,21.40
2016,07,24,11,31,21.50
2016,07,24,11,32,21.60
2016,07,24,11,33,21.70
2016,07,24,11,34,21.80
2016,07,24,11,35,21.80
2016,07,24,11,36,21.90
2016,07,24,11,37,22.00
2016,07,24,11,38,22.10
2016,07,24,11,39,22.20
2016,07,24,11,40,22.20
2016,07,24,11,41,22.20
2016,07,24,11,42,22.20
2016,07,24,11,43,22.20
2016,07,24,11,44,22.20
2016,07,24,11,45,22.20
2016,07,24,11,46,22.20
2016,07,24,11,47,22.30
2016,07,24,11,48,22.30
2016,07,24,11,49,22.40
2016,07,24,11,50,22.50
2016,07,24,11,51,22.50
2016,07,24,11,52,22.60
2016,07,24,11,53,22.70
2016,07,24,11,54,22.70
2016,07,24,11,55,22.80
2016,07,24,11,56,22.90
2016,07,24,11,57,23.00
2016,07,24,11,58,23.10
2016,07,24,11,59,23.10
2016,07,24,12,00,23.20
2016,07,24,12,01,23.20
2016,07,24,12,02,23.30
2016,07,24,12,03,23.40
2016,07,24,12,04,23.50
2016,07,24,12,05,23.50
2016,07,24,12,06,23.70
2016,07,24,12,07,23.80
2016,07,24,12,08,23.80
2016,07,24,12,09,23.90
2016,07,24,12,10,23.90
2016,07,24,12,11,23.90
2016,07,24,12,12,23.90
2016,07,24,12,13,23.90
2016,07,24,12,14,24.00
2016,07,24,12,15,24.00
2016,07,24,12,16,23.90
2016,07,24,12,17,23.90
2016,07,24,12,18,23.90
2016,07,24,12,19,23.90
2016,07,24,12,20,23.90
2016,07,24,12,21,24.00
2016,07,24,12,22,24.10
2016,07,24,12,23,24.20
2016,07,24,12,24,24.30
2016,07,24,12,25,24.30
2016,07,24,12,26,24.30
2016,07,24,12,27,24.20
2016,07,24,12,28,24.20
2016,07,24,12,29,24.20
2016,07,24,12,30,24.10
2016,07,24,12,31,24.10
2016,07,24,12,32,24.10
2016,07,24,12,33,24.00
2016,07,24,12,34,24.00
2016,07,24,12,35,24.10
2016,07,24,12,36,24.10
2016,07,24,12,37,24.20
2016,07,24,12,38,24.30
2016,07,24,12,39,24.50
2016,07,24,12,40,24.50
2016,07,24,12,41,24.60
2016,07,24,12,42,24.70
2016,07,24,12,43,24.70
2016,07,24,12,44,24.60
2016,07,24,12,45,24.50
2016,07,24,12,46,24.50
2016,07,24,12,47,24.40
2016,07,24,12,48,24.40
2016,07,24,12,49,24.30
2016,07,24,12,50,24.30
2016,07,24,12,51,24.30
2016,07,24,12,52,24.30
2016,07,24,12,53,24.40
2016,07,24,12,54,24.60
2016,07,24,12,55,24.70
2016,07,24,12,56,24.80
2016,07,24,12,57,24.80
2016,07,24,12,58,24.80
2016,07,24,12,59,24.80
2016,07,24,13,00,24.70
2016,07,24,13,01,24.70
2016,07,24,13,02,24.70
2016,07,24,13,03,24.70
2016,07,24,13,04,24.80
2016,07,24,13,05,24.90
2016,07,24,13,06,25.00
2016,07,24,13,07,25.10
2016,07,24,13,08,25.10
2016,07,24,13,09,25.20
2016,07,24,13,10,25.10
2016,07,24,13,11,25.10
2016,07,24,13,12,25.20
2016,07,24,13,13,25.20
2016,07,24,13,14,25.20
2016,07,24,13,15,25.20
2016,07,24,13,16,25.20
2016,07,24,13,17,25.20
2016,07,24,13,18,25.10
2016,07,24,13,19,25.10
2016,07,24,13,20,25.10
2016,07,24,13,21,25.10
2016,07,24,13,22,25.10
2016,07,24,13,23,25.20
2016,07,24,13,24,25.30
2016,07,24,13,25,25.30
2016,07,24,13,26,25.40
2016,07,24,13,27,25.40
2016,07,24,13,28,25.50
2016,07,24,13,29,25.50
2016,07,24,13,30,25.50
2016,07,24,13,31,25.50
2016,07,24,13,32,25.50
2016,07,24,13,33,25.60
2016,07,24,13,34,25.60
2016,07,24,13,35,25.60
2016,07,24,13,36,25.70
2016,07,24,13,37,25.70
2016,07,24,13,38,25.70
2016,07,24,13,39,25.80
2016,07,24,13,40,25.80
2016,07,24,13,41,25.80
2016,07,24,13,42,25.80
2016,07,24,13,43,25.80
2016,07,24,13,44,25.80
2016,07,24,13,45,25.80
2016,07,24,13,46,25.80
2016,07,24,13,47,25.80
2016,07,24,13,48,25.80
2016,07,24,13,49,25.80
2016,07,24,13,50,25.80
2016,07,24,13,51,25.80
2016,07,24,13,52,25.80
2016,07,24,13,53,25.80
2016,07,24,13,54,25.80
2016,07,24,13,55,25.80
2016,07,24,13,56,25.90
2016,07,24,13,57,25.90
2016,07,24,13,58,25.90
2016,07,24,13,59,25.90
2016,07,24,14,00,25.90
2016,07,24,14,01,25.90
2016,07,24,14,02,25.80
2016,07,24,14,03,25.80
2016,07,24,14,04,25.80
2016,07,24,14,05,25.80
2016,07,24,14,06,25.80
2016,07,24,14,07,25.90
2016,07,24,14,08,25.90
2016,07,24,14,09,25.90
2016,07,24,14,10,25.90
2016,07,24,14,11,26.00
2016,07,24,14,12,26.10
2016,07,24,14,13,26.10
2016,07,24,14,14,26.20
2016,07,24,14,15,26.20
2016,07,24,14,16,26.30
2016,07,24,14,17,26.30
2016,07,24,14,18,26.40
2016,07,24,14,19,26.40
2016,07,24,14,20,26.40
2016,07,24,14,21,26.40
2016,07,24,14,22,26.40
2016,07,24,14,23,26.50
2016,07,24,14,24,26.40
2016,07,24,14,25,26.40
2016,07,24,14,26,26.40
2016,07,24,14,27,26.40
2016,07,24,14,28,26.30
2016,07,24,14,29,26.20
2016,07,24,14,30,26.10
2016,07,24,14,31,26.00
2016,07,24,14,32,25.90
2016,07,24,14,33,25.90
2016,07,24,14,34,25.80
2016,07,24,14,35,25.70
2016,07,24,14,36,25.70
2016,07,24,14,37,25.60
2016,07,24,14,38,25.60
2016,07,24,14,39,25.70
2016,07,24,14,40,25.80
2016,07,24,14,41,25.80
2016,07,24,14,42,25.80
2016,07,24,14,43,25.80
2016,07,24,14,44,25.70
2016,07,24,14,45,25.70
2016,07,24,14,46,25.70
2016,07,24,14,47,25.70
2016,07,24,14,48,25.60
2016,07,24,14,49,25.60
2016,07,24,14,50,25.60
2016,07,24,14,51,25.70
2016,07,24,14,52,25.70
2016,07,24,14,53,25.70
2016,07,24,14,54,25.70
2016,07,24,14,55,25.80
2016,07,24,14,56,25.70
2016,07,24,14,57,25.70
2016,07,24,14,58,25.60
2016,07,24,14,59,25.60
2016,07,24,15,00,25.60
2016,07,24,15,01,25.60
2016,07,24,15,02,25.60
2016,07,24,15,03,25.60
2016,07,24,15,04,25.50
2016,07,24,15,05,25.50
2016,07,24,15,06,25.50
2016,07,24,15,07,25.50
2016,07,24,15,08,25.60
2016,07,24,15,09,25.50
2016,07,24,15,10,25.60
2016,07,24,15,11,25.60
2016,07,24,15,12,25.60
2016,07,24,15,13,25.70
2016,07,24,15,14,25.70
2016,07,24,15,15,25.80
2016,07,24,15,16,25.80
2016,07,24,15,17,25.80
2016,07,24,15,18,25.80
2016,07,24,15,19,25.80
2016,07,24,15,20,25.70
2016,07,24,15,21,25.70
2016,07,24,15,22,25.70
2016,07,24,15,23,25.70
2016,07,24,15,24,25.70
2016,07,24,15,25,25.80
2016,07,24,15,26,25.80
2016,07,24,15,27,25.80
2016,07,24,15,28,25.80
2016,07,24,15,29,25.90
2016,07,24,15,30,25.90
2016,07,24,15,31,26.00
2016,07,24,15,32,26.10
2016,07,24,15,33,26.20
2016,07,24,15,34,26.20
2016,07,24,15,35,26.10
2016,07,24,15,36,26.10
2016,07,24,15,37,26.00
2016,07,24,15,38,26.00
2016,07,24,15,39,25.90
2016,07,24,15,40,25.90
2016,07,24,15,41,25.90
2016,07,24,15,42,26.00
2016,07,24,15,43,25.90
2016,07,24,15,44,25.90
2016,07,24,15,45,26.00
2016,07,24,15,46,26.00
2016,07,24,15,47,26.10
2016,07,24,15,48,26.00
2016,07,24,15,49,26.00
2016,07,24,15,50,26.00
2016,07,24,15,51,26.00
2016,07,24,15,52,25.90
2016,07,24,15,53,25.90
2016,07,24,15,54,25.90
2016,07,24,15,55,25.90
2016,07,24,15,56,26.00
2016,07,24,15,57,26.00
2016,07,24,15,58,26.10
2016,07,24,15,59,26.10
2016,07,24,16,00,26.10
2016,07,24,16,01,26.00
2016,07,24,16,02,26.00
2016,07,24,16,03,26.00
2016,07,24,16,04,26.00
2016,07,24,16,05,26.00
2016,07,24,16,06,26.00
2016,07,24,16,07,26.00
2016,07,24,16,08,26.00
2016,07,24,16,09,25.90
2016,07,24,16,10,25.80
2016,07,24,16,11,25.80
2016,07,24,16,12,25.70
2016,07,24,16,13,25.60
2016,07,24,16,14,25.60
2016,07,24,16,15,25.60
2016,07,24,16,16,25.50
2016,07,24,16,17,25.50
2016,07,24,16,18,25.50
2016,07,24,16,19,25.50
2016,07,24,16,20,25.60
2016,07,24,16,21,25.60
2016,07,24,16,22,25.70
2016,07,24,16,23,25.70
2016,07,24,16,24,25.80
2016,07,24,16,25,25.80
2016,07,24,16,26,25.90
2016,07,24,16,27,25.90
2016,07,24,16,28,25.80
2016,07,24,16,29,25.80
2016,07,24,16,30,25.80
2016,07,24,16,31,25.80
2016,07,24,16,32,25.80
2016,07,24,16,33,25.80
2016,07,24,16,34,25.70
2016,07,24,16,35,25.70
2016,07,24,16,36,25.70
2016,07,24,16,37,25.70
2016,07,24,16,38,25.70
2016,07,24,16,39,25.60
2016,07,24,16,40,25.60
2016,07,24,16,41,25.60
2016,07,24,16,42,25.60
2016,07,24,16,43,25.50
2016,07,24,16,44,25.50
2016,07,24,16,45,25.50
2016,07,24,16,46,25.50
2016,07,24,16,47,25.40
2016,07,24,16,48,25.50
2016,07,24,16,49,25.40
2016,07,24,16,50,25.40
2016,07,24,16,51,25.40
2016,07,24,16,52,25.40
2016,07,24,16,53,25.40
2016,07,24,16,54,25.40
2016,07,24,16,55,25.40
2016,07,24,16,56,25.40
2016,07,24,16,57,25.40
2016,07,24,16,58,25.50
2016,07,24,16,59,25.60
2016,07,24,17,00,25.60
2016,07,24,17,01,25.70
2016,07,24,17,02,25.80
2016,07,24,17,03,25.80
2016,07,24,17,04,25.90
2016,07,24,17,05,25.90
2016,07,24,17,06,26.00
2016,07,24,17,07,26.00
2016,07,24,17,08,26.10
2016,07,24,17,09,26.20
2016,07,24,17,10,26.20
2016,07,24,17,11,26.30
2016,07,24,17,12,26.30
2016,07,24,17,13,26.30
2016,07,24,17,14,26.30
2016,07,24,17,15,26.30
2016,07,24,17,16,26.30
2016,07,24,17,17,26.30
2016,07,24,17,18,26.20
2016,07,24,17,19,26.20